#timestamp,LO_Frequency,Hit,StdDev 
1594710015.3,286046998.2,N
1594710035.1,286047001.0,N
1594710055.9,286047000.7,N
1594710075.7,286046999.7,N
1594710095.6,286047000.8,N
1594710115.4,286047000.3,N
1594710135.2,286047000.1,N
1594710155.1,286047002.8,Y
1594710156.0,286047002.8,P
1594710175.8,286047002.7,N
1594710195.7,286046999.7,N
1594710215.5,286046999.9,N
1594710235.3,286047000.5,N
1594710255.2,286047002.4,N
1594710275.9,286047003.8,N
1594710295.7,286047001.7,N
1594710315.6,286047006.0,Y
1594710335.4,286047001.8,P
1594710355.3,286047001.9,P
1594710375.1,286047004.0,P
1594710376.0,286047004.0,Y
1594710395.8,286047001.4,P
1594710415.7,286047001.3,N
1594710435.5,286047003.9,P
1594710455.4,286047004.3,Y
1594710475.2,286047000.6,P
1594710495.0,286047000.5,N
1594710495.9,286047000.5,N
1594710515.8,286047004.4,Y
1594710535.6,286047002.2,P
1594710555.5,286047001.2,N
1594710575.3,286047001.1,N
1594710595.1,286046999.1,N
1594710615.9,286046999.0,N
1594710635.7,286046999.3,N
1594710655.5,286046997.4,N
1594710675.4,286046999.3,N
1594710695.2,286046997.4,N
1594710715.1,286046995.7,N
1594710716.0,286046995.7,N
1594710735.8,286046994.9,N
1594710755.6,286046998.7,N
1594710775.5,286046996.5,N
1594710795.0,286046998.7,N
1594710795.9,286046998.7,N
1594710815.7,286047000.7,N
1594710835.6,286047002.7,N
1594710855.4,286047000.9,N
1594710875.3,286046996.6,N
1594710895.1,286046999.3,N
1594710896.0,286046999.3,N
1594710915.8,286047000.1,N
1594710935.7,286047002.4,N
1594710955.5,286047002.5,N
1594710975.3,286047001.8,N
1594710995.2,286047002.8,N
1594711015.0,286047002.2,N
1594711015.9,286047002.2,N
1594711035.8,286047000.5,N
1594711055.6,286047001.0,N
1594711075.4,286047000.7,N
1594711095.3,286046999.4,N
1594711115.1,286046999.5,N
1594711135.9,286046995.0,N
1594711155.7,286046996.4,N
1594711175.6,286046995.9,N
1594711195.4,286046996.3,N
1594711215.2,286046996.1,N
1594711235.1,286046993.3,N
1594711236.0,286046993.3,N
1594711255.8,286046996.0,N
1594711275.7,286046993.8,N
1594711295.5,286046992.1,N
1594711315.3,286046991.9,N
1594711335.2,286046993.1,N
1594711355.0,286046992.0,N
1594711355.9,286046992.0,N
1594711375.8,286046993.1,N
1594711395.6,286046993.2,N
1594711415.5,286046991.4,N
1594711435.3,286046991.3,N
1594711455.1,286046991.4,N
1594711475.9,286046991.2,N
1594711495.7,286046988.5,N
1594711515.6,286046991.2,N
1594711535.4,286046991.5,N
1594711555.3,286046989.8,N
1594711575.1,286046989.1,Y
1594711595.8,286046993.6,P
1594711615.7,286046995.7,P
1594711635.5,286046995.6,P
1594711655.4,286046996.4,Y
1594711675.2,286047000.4,P
1594711695.0,286046998.2,N
1594711695.9,286046998.2,N
1594711715.8,286046999.2,N
1594711735.6,286046999.2,N
1594711755.5,286046996.6,N
1594711775.3,286046998.5,N
1594711795.1,286047000.6,N
1594711815.9,286047001.2,N
1594711835.7,286047001.1,N
1594711855.6,286046998.1,N
1594711875.4,286047001.2,N
1594711895.2,286047001.0,N
1594711915.1,286047001.0,N
1594711916.0,286047001.0,N
1594711935.8,286047000.4,N
1594711955.6,286047000.5,N
1594711975.5,286047002.5,N
1594711995.3,286047002.3,N
1594712015.2,286047001.6,N
1594712035.9,286047001.7,N
1594712055.7,286047001.4,N
1594712075.6,286047001.9,N
1594712095.4,286047003.9,N
1594712115.3,286047004.3,N
1594712135.1,286047004.4,N
1594712136.0,286047004.4,N
1594712155.8,286047005.4,N
1594712175.7,286047003.8,N
1594712195.5,286047002.5,N
1594712215.3,286047002.6,N
1594712235.2,286047004.2,N
1594712255.0,286047004.2,N
1594712255.9,286047004.2,N
1594712275.8,286047003.6,N
1594712295.6,286047001.9,N
1594712315.4,286047002.3,N
1594712335.3,286047001.8,N
1594712355.1,286047002.0,N
1594712375.9,286047002.5,N
1594712395.7,286047002.8,N
1594712415.5,286047001.3,N
1594712435.4,286047002.7,N
1594712455.2,286047001.7,N
1594712475.1,286047002.0,N
1594712476.0,286047002.0,N
1594712495.8,286047001.7,N
1594712515.6,286047001.5,N
1594712535.5,286047004.3,Y
1594712555.3,286047001.0,P
1594712575.2,286046998.2,N
1594712595.9,286046999.5,N
1594712615.7,286046999.5,N
1594712635.6,286046996.7,N
1594712655.4,286046999.4,N
1594712675.2,286046998.9,N
1594712695.1,286046996.6,N
1594712696.0,286046996.6,N
1594712715.8,286046998.6,N
1594712735.7,286047000.8,N
1594712755.5,286046998.5,N
1594712775.3,286046998.9,N
1594712795.2,286047001.2,N
1594712815.0,286046998.2,N
1594712815.9,286046998.2,N
1594712835.8,286047000.5,N
1594712855.6,286046999.8,N
1594712875.4,286046998.5,N
1594712895.3,286046999.5,N
1594712915.1,286046998.1,N
1594712935.8,286046999.6,N
1594712955.7,286046999.4,N
1594712975.5,286046998.8,N
1594712995.4,286046998.8,N
1594713015.2,286047000.8,N
1594713035.0,286046998.4,N
1594713035.9,286046998.4,N
1594713055.8,286046998.6,N
1594713075.6,286046998.3,N
1594713095.5,286047001.2,N
1594713115.3,286047001.1,N
1594713135.2,286047000.7,N
1594713155.0,286046998.7,N
1594713155.9,286046998.7,N
1594713175.7,286046998.2,N
1594713195.6,286046999.2,N
1594713215.4,286046996.8,N
1594713235.3,286046997.0,N
1594713255.1,286046996.8,N
1594713256.0,286046996.8,N
1594713275.8,286046996.9,N
1594713295.7,286046997.3,N
1594713315.5,286046997.5,N
1594713335.4,286046996.8,N
1594713355.2,286046997.3,N
1594713375.0,286046997.3,N
1594713375.9,286046997.3,N
1594713395.8,286046997.2,N
1594713415.6,286046996.6,N
1594713435.4,286046999.1,N
1594713455.3,286046998.8,N
1594713475.1,286046997.0,N
1594713495.9,286046999.0,N
1594713515.7,286046996.5,N
1594713535.5,286046999.6,N
1594713555.4,286046999.2,N
1594713575.6,286046999.6,N
1594713595.5,286046999.1,N
